Location: Township of South Roscoe
(37.9570°N, 100.1180°W)
Time: 19:38:45
(UTC+00:00)

Tiangong - Visible Passes

Search period start: 16 January 2022 00:00
Search period end: 26 January 2022 00:00
Orbit: 383 x 387 km, 41.5° (Epoch: 16 January)

Date Brightness Start Highest point End Pass type
(mag) Time Alt. Az. Time Alt. Az. Time Alt. Az.
16 Jan 2.6 12:26:25 23° SSW 12:26:26 23° SSW 12:28:59 10° SSE visible
17 Jan 4.4 11:29:58 10° SE 11:29:58 10° SE 11:30:02 10° SE visible
25 Jan 3.6 01:50:02 10° SSW 01:50:56 15° SSW 01:50:56 15° SSW visible
